Regional Weather Roundup
Issued by NWS

Home | Current Version | Previous Version | Graphics & Text | Print | Product List | Glossary Off
Versions: 1 2 3 4 5 6 7 8 9 10 11 12 13 14 15 16 17 18 19 20 21 22 23 24 25 26 27 28 29 30 31 32 33 34 35 36 37 38 39 40 41 42 43 44 45 46 47 48 49 50

000
ASUS43 KTOP 191059
RWRKS

WEATHER ROUNDUP FOR KANSAS
NATIONAL WEATHER SERVICE GOODLAND KS
600 AM CDT SAT APR 19 2014

NOTE:  "FAIR" INDICATES FEW OR NO CLOUDS BELOW 12,000 FEET WITH NO
SIGNIFICANT WEATHER AND/OR OBSTRUCTIONS TO VISIBILITY.

KSZ001>006-013>018-027>032-041>047-191200-
NORTHWEST KANSAS

CITY           SKY/WX    TMP DP  RH WIND       PRES   REMARKS
GOODLAND       CLOUDY    49  44  83 S18       29.86S
HAYS           MOCLDY    55  46  71 S17       29.98S
HILL CITY      CLOUDY    56  46  69 S18G28    29.91F
RUSSELL        MOCLDY    57  47  69 S24G33    29.96F
$$

KSZ061>065-074>080-084>089-191200-
SOUTHWEST KANSAS

CITY           SKY/WX    TMP DP  RH WIND       PRES   REMARKS
DODGE CITY     MOCLDY    53  46  77 S17G25    30.01F
ELKHART          N/A     52  39  61 S14         N/A
GARDEN CITY    CLOUDY    52  45  77 S23G30    29.96S
GREAT BEND     MOCLDY    55  45  67 S21       30.00F
LIBERAL        CLEAR     52  43  71 S20       30.02S
$$

KSZ066>073-081>083-090>101-191200-
SOUTHEAST KANSAS

CITY           SKY/WX    TMP DP  RH WIND       PRES   REMARKS
CHANUTE        CLEAR     46  40  79 SE7       30.14R
COFFEYVILLE    CLEAR     49  41  74 S6        30.15R
HUTCHINSON     PTCLDY    50  41  71 S9        30.07S
NEWTON         PTCLDY    48  36  61 S9        30.11S
PARSONS        CLEAR     53  41  63 S5        30.15R
WICHITA INTL   PTCLDY    47  40  76 S7        30.09S
WICHITA JABRA  PTCLDY    52  41  66 S10       30.09S
WINFIELD       FAIR      48  41  76 SE6       30.12S
$$

KSZ007>012-019>026-033>040-048>060-102>105-191200-
NORTHEAST KANSAS

CITY           SKY/WX    TMP DP  RH WIND       PRES   REMARKS
CONCORDIA      PTCLDY    53  40  61 S21G28    30.01F
EMPORIA        CLEAR     47  40  76 S9        30.11S HAZE
LAWRENCE       CLEAR     46  39  76 SE6       30.13S
MANHATTAN      CLEAR     51  40  65 CALM      30.08S
OLATHE IND     CLEAR     49  39  68 SE7       30.14F
OLATHE EXE     CLEAR     50  39  66 SE6       30.14S
SALINA         PTCLDY    53  40  61 SE14      30.05F
TOPEKA BILLARD CLEAR     52  41  66 S7        30.12R
TOPEKA FORBES  CLEAR     48  40  73 SE5       30.11R
$$



USA.gov is the U.S. government's official web portal to all federal, state and local government web resources and services.